Evans Head Observation History
Time Wind Speed Temp Pressure Rel. Hum Rain
07/02:00pm ESE 8-11 kts 25.0°c 1014.0 hPa 66% 0.0mm
07/01:30pm SE 7-10 kts 25.2°c 1014.3 hPa 71% 0.0mm
07/01:00pm SE 7-10 kts 23.6°c 1014.8 hPa 71% 0.0mm
07/12:30pm SE 8-11 kts 24.2°c 1015.0 hPa 67% 0.0mm
07/12:00pm SSE 7-10 kts 24.5°c 1015.2 hPa 68% 0.0mm
07/11:30am SE 7-10 kts 24.7°c 1015.3 hPa 69% 0.0mm
07/11:00am S 5-6 kts 23.0°c 1015.7 hPa 72% 0.0mm
07/10:30am W 3-6 kts 23.4°c 1016.0 hPa 67% 0.0mm
07/10:00am SW 5-9 kts 22.7°c 1016.2 hPa 75% 0.0mm
07/09:30am SW 5-8 kts 22.4°c 1015.9 hPa 80% 0.0mm
07/09:00am SSW 5-8 kts 21.0°c 1015.7 hPa 85% 1.8mm
07/08:30am SW 5-8 kts 20.0°c 1015.3 hPa 91% 1.8mm
07/08:00am W 5-6 kts 19.3°c 1015.1 hPa 92% 1.8mm
07/07:30am W 5-6 kts 19.0°c 1014.9 hPa 94% 1.8mm
07/07:00am WSW 5-7 kts 18.8°c 1014.4 hPa 94% 1.8mm
07/06:30am WSW 5-6 kts 18.8°c 1014.1 hPa 93% 1.8mm
07/06:00am WSW 6-7 kts 18.9°c 1013.8 hPa 92% 1.8mm
07/05:30am WSW 5-7 kts 19.0°c 1013.5 hPa 92% 1.8mm
07/05:00am WSW 5-6 kts 18.9°c 1013.3 hPa 93% 1.6mm
07/04:30am SW 6-8 kts 18.9°c 1013.2 hPa 94% 1.6mm
07/04:00am WSW 5-7 kts 18.7°c 1013.1 hPa 95% 1.6mm
07/03:30am W 5-6 kts 18.7°c 1012.9 hPa 95% 1.6mm
07/03:00am WNW 4-5 kts 18.6°c 1012.8 hPa 94% 1.6mm
07/02:30am WSW 4-7 kts 18.8°c 1013.4 hPa 94% 1.6mm
07/02:00am S 7-11 kts 19.0°c 1013.6 hPa 92% 1.4mm
07/01:30am SW 5-6 kts 19.6°c 1013.5 hPa 89% 1.0mm
07/01:00am SE 6-7 kts 19.9°c 1013.5 hPa 85% 1.0mm
07/12:30am SE 9-12 kts 19.7°c 1013.5 hPa 87% 1.0mm
07/12:00am SE 12-18 kts 20.6°c 1013.4 hPa 80% 0.4mm
Time Wind Speed Temp Pressure Rel. Hum Rain
06/11:30pm SE 7-10 kts 22.2°c 1013.3 hPa 66% 0.4mm
06/11:00pm SE 7-11 kts 21.9°c 1013.2 hPa 68% 0.4mm
06/10:30pm SE 10-16 kts 21.9°c 1013.2 hPa 69% 0.4mm
06/10:00pm SE 13-16 kts 22.2°c 1013.0 hPa 68% 0.4mm
06/09:30pm SE 9-13 kts 22.3°c 1012.7 hPa 70% 0.4mm
06/09:00pm SE 9-14 kts 21.8°c 1012.5 hPa 72% 0.4mm
06/08:30pm SE 10-14 kts 22.2°c 1011.9 hPa 68% 0.4mm
06/08:00pm SE 11-16 kts 22.1°c 1011.5 hPa 68% 0.4mm
06/07:30pm SE 10-15 kts 22.3°c 1011.3 hPa 69% 0.4mm
06/07:00pm SE 10-14 kts 22.1°c 1010.9 hPa 69% 0.4mm
06/06:30pm SE 9-14 kts 22.0°c 1010.2 hPa 71% 0.4mm
06/06:00pm SE 11-15 kts 22.2°c 1010.0 hPa 70% 0.4mm
06/05:30pm SE 9-13 kts 23.2°c 1009.8 hPa 69% 0.4mm
06/05:00pm SE 8-11 kts 22.9°c 1009.8 hPa 71% 0.4mm
06/04:30pm SE 10-15 kts 23.7°c 1009.7 hPa 65% 0.4mm
06/04:00pm SSE 11-16 kts 24.3°c 1009.6 hPa 65% 0.4mm
06/03:30pm SSE 10-15 kts 24.5°c 1009.9 hPa 61% 0.4mm
06/03:00pm SE 9-13 kts 24.5°c 1009.9 hPa 66% 0.4mm
06/02:30pm SE 10-15 kts 24.6°c 1010.0 hPa 70% 0.4mm
06/02:00pm S 13-19 kts 22.4°c 1010.2 hPa 74% 0.4mm
06/01:30pm SSE 11-17 kts 22.0°c 1010.4 hPa 77% 0.4mm
06/01:00pm SSE 10-13 kts 23.7°c 1010.4 hPa 65% 0.2mm
06/12:30pm SSE 12-15 kts 23.5°c 1010.6 hPa 69% 0.2mm
06/12:00pm S 10-15 kts 21.2°c 1010.8 hPa 82% 0.2mm
06/11:30am SSE 7-11 kts 21.4°c 1010.9 hPa 82% 0.2mm
06/11:00am SSE 12-17 kts 21.1°c 1010.9 hPa 83% 0.2mm
06/10:30am WSW 5-7 kts 21.4°c 1010.8 hPa 87% 0.2mm
06/10:00am SSW 6-9 kts 20.5°c 1010.7 hPa 89% 0.2mm
06/09:30am SE 7-11 kts 20.6°c 1010.3 hPa 83% 0.0mm
06/09:00am SW 4-7 kts 20.2°c 1009.8 hPa 91% 6.4mm
06/08:30am SSE 8-13 kts 20.1°c 1009.5 hPa 86% 6.2mm
06/08:00am S 8-11 kts 19.7°c 1009.0 hPa 90% 6.2mm
06/07:30am SSW 8-12 kts 19.6°c 1008.7 hPa 90% 4.0mm
06/07:00am SSW 8-13 kts 19.4°c 1008.3 hPa 91% 3.8mm
06/06:30am SSE 12-20 kts 20.5°c 1007.8 hPa 83% 3.0mm
06/06:00am SSE 13-18 kts 20.3°c 1007.6 hPa 85% 3.0mm
06/05:30am SSE 12-18 kts 20.0°c 1007.4 hPa 91% 3.0mm
06/05:00am SE 7-9 kts 20.8°c 1007.2 hPa 85% 0.4mm
06/04:30am SSE 8-11 kts 20.5°c 1007.5 hPa 86% 0.4mm
06/04:00am SSE 16-23 kts 20.3°c 1007.4 hPa 89% 0.4mm
06/03:30am SE 9-14 kts 22.5°c 1007.2 hPa 71% 0.2mm
06/03:00am SSE 11-15 kts 22.2°c 1007.2 hPa 72% 0.2mm
06/02:30am SSE 13-19 kts 22.7°c 1007.3 hPa 69% 0.2mm
06/02:00am SE 12-17 kts 22.7°c 1007.5 hPa 71% 0.2mm
06/01:30am SE 13-19 kts 22.8°c 1007.6 hPa 70% 0.2mm
06/01:00am SSE 14-20 kts 22.9°c 1007.8 hPa 72% 0.2mm
06/12:30am SSE 16-24 kts 22.9°c 1007.8 hPa 71% 0.2mm
06/12:00am SSE 16-22 kts 22.8°c 1007.8 hPa 75% 0.2mm
Time Wind Speed Temp Pressure Rel. Hum Rain
05/11:30pm SSE 15-23 kts 22.7°c 1007.7 hPa 75% 0.2mm
05/11:00pm SSE 17-24 kts 22.9°c 1007.7 hPa 75% 0.2mm
05/10:30pm SE 15-25 kts 21.9°c 1007.6 hPa 82% 0.2mm
05/10:00pm SE 16-25 kts 23.6°c 1007.5 hPa 74% 0.0mm
05/09:30pm SSE 16-21 kts 23.5°c 1007.5 hPa 74% 0.0mm
05/09:00pm SSE 16-22 kts 23.8°c 1007.1 hPa 72% 0.0mm
05/08:30pm SSE 17-24 kts 24.2°c 1006.7 hPa 71% 0.0mm
05/08:00pm SSE 15-20 kts 24.6°c 1006.1 hPa 63% 0.0mm
05/07:30pm SSE 14-20 kts 24.6°c 1005.8 hPa 62% 0.0mm
05/07:00pm SSE 13-17 kts 24.1°c 1005.4 hPa 65% 0.0mm
05/06:30pm SSE 13-18 kts 24.7°c 1005.0 hPa 56% 0.0mm
05/06:00pm SSE 12-16 kts 25.4°c 1004.6 hPa 58% 0.0mm
05/05:30pm SSE 11-16 kts 26.4°c 1004.3 hPa 49% 0.0mm
05/05:00pm SE 10-13 kts 26.8°c 1004.1 hPa 51% 0.0mm
05/04:30pm SE 10-15 kts 27.3°c 1004.0 hPa 47% 0.0mm
05/04:00pm ESE 9-13 kts 27.6°c 1004.0 hPa 58% 0.0mm
05/03:30pm ESE 8-11 kts 28.2°c 1004.1 hPa 58% 0.0mm
05/03:00pm SE 8-10 kts 27.8°c 1004.1 hPa 50% 0.0mm
05/02:30pm WSW 4-8 kts 29.6°c 1004.4 hPa 49% 0.0mm
05/02:00pm WSW 6-11 kts 28.8°c 1004.7 hPa 48% 0.0mm
05/01:30pm WNW 6-10 kts 29.2°c 1005.0 hPa 46% 0.0mm
05/01:00pm W 5-12 kts 29.1°c 1005.4 hPa 51% 0.0mm
05/12:30pm W 6-11 kts 28.2°c 1005.8 hPa 53% 0.0mm
05/12:00pm NW 7-13 kts 28.0°c 1006.2 hPa 58% 0.0mm
05/11:30am NW 8-13 kts 27.1°c 1006.7 hPa 56% 0.0mm
05/11:00am NNW 6-11 kts 26.4°c 1007.0 hPa 63% 0.0mm
05/10:30am NNW 9-15 kts 25.5°c 1007.2 hPa 61% 0.0mm
05/10:00am NNW 6-11 kts 25.1°c 1007.5 hPa 66% 0.0mm
05/09:30am NNW 7-13 kts 23.6°c 1007.5 hPa 67% 0.0mm
05/09:00am NNW 8-14 kts 22.2°c 1007.5 hPa 68% n/a
05/08:30am NNW 5-8 kts 20.8°c 1007.6 hPa 76% n/a
05/08:00am NNW 6-9 kts 19.1°c 1007.5 hPa 83% n/a
05/07:30am NW 6-9 kts 17.4°c 1007.4 hPa 92% n/a
05/07:00am NNW 5-9 kts 16.1°c 1007.3 hPa 96% n/a
05/06:30am NNW 5-6 kts 15.4°c 1007.2 hPa 95% n/a
05/06:00am NNW 5-7 kts 15.4°c 1007.2 hPa 94% n/a
05/05:30am NNW 5-6 kts 15.7°c 1007.4 hPa 91% n/a
05/05:00am WNW 6-8 kts 16.7°c 1007.5 hPa 84% n/a
05/04:30am WNW 6-8 kts 17.2°c 1007.7 hPa 84% n/a
05/04:00am NNW 5-7 kts 15.6°c 1007.9 hPa 91% n/a
05/03:30am NNW 5-7 kts 15.9°c 1008.0 hPa 90% n/a
05/03:00am NNW 5-6 kts 16.1°c 1008.4 hPa 88% n/a
05/02:30am NNW 5-6 kts 16.3°c 1008.7 hPa 87% n/a
05/02:00am NNW 5-6 kts 16.5°c 1008.9 hPa 86% n/a
05/01:30am NNW 5-6 kts 16.7°c 1009.6 hPa 85% n/a
05/01:00am - 0.0 kts 17.0°c 1009.9 hPa 84% n/a
05/12:00am NNW 5-6 kts 17.7°c 1010.2 hPa 81% n/a